Simultaneous Nadir Overpasses (SNOs) Predictions

Prediction of SNOs over PacNW region [( 10.00, 139.50) to ( 22.70, 165.60)] between AQUA and NPP Satellites:

Table of predicted SNOs over PacNW region for the next 30.0 days since TLE Epoch: 11/29/2014
Index Date (AQUA) Time (AQUA) AQUA Lat,Lon Date (NPP) Time (NPP) NPP Lat,Lon Distance(km) Time Diff (sec)
1 11/29/2014 15:32:10 10.05, 152.34 11/29/2014 15:29:28 10.00, 152.44 11.61 162
2 12/05/2014 02:38:53 10.09, 162.74 12/05/2014 02:41:08 9.79, 161.45 145.28 135
3 12/07/2014 16:19:06 17.99, 141.83 12/07/2014 16:17:48 18.05, 141.61 24.35 78
4 12/13/2014 03:27:53 10.09, 150.50 12/13/2014 03:31:21 8.44, 149.06 241.98 208
5 12/15/2014 15:30:06 14.61, 153.56 12/15/2014 15:27:52 14.63, 153.48 8.96 134
6 12/21/2014 02:37:49 10.07, 163.03 12/21/2014 02:40:48 9.74, 161.45 176.82 179
7 12/23/2014 16:17:08 20.87, 142.80 12/23/2014 16:16:38 20.99, 142.31 53.10 30




NCC Satellite Simultaneous Nadir Overpasses (SNOs) Prediction Service
